Temp
-15 -15 -15 -16 -15 -15 -15 -15 -15 -15 -16 -17 -17 -17 -17 -17 -17 -17 -17 -18 -18 -18 -18 -18 -18 -18 -18 -18 -17 -17 -17 -16 -16 -16 -17 -18 -18 -19
-15 -15 -15 -16 -16 -16 -16 -16 -16 -16 -15 -16 -17 -17 -18 -18 -18 -18 -18 -18 -18 -19 -19 -19 -18 -18 -18 -17 -17 -17 -17 -18 -20 -21 -23 -23 -23 -23
-16 -16 -16 -16 -16 -16 -16 -17 -17 -17 -16 -17 -17 -17 -18 -18 -19 -19 -19 -19 -19 -19 -19 -19 -18 -18 -18 -18 -18 -21 -23 -23 -23 -23 -23 -23 -24 -24
-16 -16 -16 -16 -16 -17 -17 -17 -17 -18 -17 -17 -17 -18 -18 -19 -19 -19 -19 -19 -19 -19 -19 -18 -18 -19 -20 -22 -24 -24 -23 -23 -23 -24 -23 -24 -24 -24
-16 -16 -16 -16 -17 -17 -17 -17 -18 -18 -18 -18 -18 -18 -19 -19 -19 -19 -19 -19 -19 -19 -19 -19 -20 -23 -24 -24 -24 -24 -24 -24 -24 -24 -24 -24 -24 -24
-16 -16 -16 -17 -17 -17 -17 -18 -18 -18 -19 -19 -19 -19 -19 -19 -19 -19 -19 -19 -19 -20 -21 -23 -25 -25 -25 -25 -25 -24 -24 -24 -24 -24 -24 -24 -24 -24
-16 -16 -17 -17 -17 -17 -18 -18 -19 -19 -19 -19 -19 -19 -19 -19 -19 -19 -19 -19 -20 -23 -25 -25 -25 -25 -25 -25 -25 -25 -25 -25 -25 -25 -25 -25 -25 -24
-17 -17 -17 -17 -17 -18 -18 -19 -19 -19 -20 -20 -19 -19 -19 -19 -19 -19 -20 -21 -23 -26 -25 -25 -25 -26 -26 -26 -26 -26 -26 -26 -26 -26 -26 -26 -26 -26
-17 -17 -17 -18 -18 -18 -19 -19 -20 -20 -20 -19 -19 -19 -19 -20 -20 -20 -22 -26 -26 -26 -26 -25 -26 -26 -26 -27 -27 -27 -27 -27 -27 -27 -27 -27 -27 -27
-17 -17 -18 -18 -19 -19 -20 -20 -20 -20 -20 -20 -20 -20 -20 -20 -21 -24 -26 -26 -26 -26 -26 -26 -26 -26 -27 -27 -28 -28 -28 -28 -28 -28 -28 -28 -28 -28
-18 -18 -18 -19 -20 -20 -20 -20 -20 -20 -20 -20 -20 -20 -21 -23 -26 -26 -26 -26 -26 -26 -27 -26 -27 -27 -27 -28 -29 -30 -29 -28 -28 -29 -29 -29 -29 -28
-18 -18 -19 -20 -20 -20 -20 -20 -20 -20 -20 -21 -21 -23 -25 -27 -26 -26 -26 -26 -27 -27 -28 -27 -27 -28 -28 -29 -30 -31 -30 -29 -29 -29 -29 -29 -29 -28
-19 -20 -20 -20 -20 -20 -20 -20 -20 -20 -21 -22 -24 -26 -27 -27 -27 -27 -27 -27 -27 -28 -29 -29 -29 -29 -29 -29 -30 -31 -30 -30 -29 -29 -29 -29 -29 -28
-20 -20 -20 -20 -20 -20 -20 -20 -20 -21 -22 -25 -26 -26 -26 -27 -27 -27 -28 -28 -29 -30 -30 -30 -30 -30 -30 -30 -30 -31 -30 -30 -30 -30 -29 -29 -29 -29
-20 -20 -20 -20 -20 -20 -20 -21 -22 -23 -26 -26 -26 -27 -27 -27 -28 -28 -29 -30 -31 -32 -32 -32 -31 -30 -31 -30 -29 -30 -30 -30 -29 -29 -29 -29 -29 -28
-20 -20 -20 -20 -20 -20 -21 -22 -24 -26 -26 -26 -26 -27 -27 -28 -29 -29 -30 -31 -32 -33 -33 -32 -32 -31 -31 -30 -29 -29 -29 -29 -29 -29 -28 -28 -28 -28
-20 -20 -20 -20 -21 -22 -23 -25 -26 -26 -26 -26 -27 -27 -28 -28 -29 -30 -31 -32 -33 -33 -33 -32 -32 -31 -30 -29 -29 -29 -29 -29 -28 -28 -28 -28 -28 -27
-20 -20 -20 -21 -22 -24 -26 -26 -26 -26 -26 -27 -27 -27 -28 -28 -29 -30 -30 -31 -31 -32 -32 -31 -31 -30 -30 -30 -28 -28 -28 -28 -27 -27 -27 -27 -28 -27
-20 -20 -21 -22 -24 -26 -26 -26 -26 -26 -26 -27 -27 -27 -28 -28 -28 -29 -29 -29 -30 -30 -29 -29 -29 -29 -29 -29 -28 -26 -27 -27 -27 -28 -27 -27 -26 -27
-20 -21 -23 -24 -26 -26 -26 -26 -26 -26 -26 -26 -27 -27 -27 -27 -27 -28 -28 -28 -29 -29 -29 -28 -28 -28 -28 -28 -28 -27 -26 -26 -26 -26 -27 -26 -26 -25
-21 -23 -25 -26 -26 -26 -26 -26 -27 -27 -26 -27 -26 -26 -26 -26 -26 -26 -27 -27 -27 -27 -27 -27 -27 -27 -27 -27 -27 -27 -27 -26 -26 -25 -25 -25 -25 -25
-23 -25 -26 -27 -27 -27 -27 -27 -27 -27 -27 -26 -26 -26 -26 -25 -26 -26 -26 -26 -27 -27 -27 -27 -27 -27 -27 -26 -27 -26 -26 -26 -26 -25 -24 -24 -24 -24
-25 -26 -27 -27 -27 -27 -27 -27 -27 -27 -27 -26 -26 -26 -25 -25 -26 -26 -26 -26 -26 -26 -26 -26 -26 -26 -26 -26 -26 -26 -25 -25 -25 -25 -25 -24 -24 -24
Height
5701 5698 5695 5692 5687 5683 5678 5673 5668 5663 5660 5653 5646 5640 5634 5627 5620 5613 5607 5599 5593 5586 5579 5572 5565 5557 5551 5543 5535 5526 5516 5508 5499 5492 5485 5479 5475 5471
5692 5689 5684 5680 5676 5670 5664 5658 5653 5647 5642 5636 5630 5624 5617 5611 5603 5595 5588 5580 5572 5563 5556 5548 5539 5531 5523 5512 5502 5491 5480 5471 5463 5459 5455 5454 5451 5449
5682 5677 5673 5669 5663 5657 5651 5645 5639 5632 5626 5620 5611 5605 5599 5591 5584 5576 5567 5559 5550 5539 5531 5521 5511 5501 5491 5480 5468 5457 5451 5447 5444 5442 5440 5438 5436 5435
5671 5666 5662 5656 5650 5644 5638 5631 5624 5617 5610 5603 5595 5588 5580 5572 5564 5555 5547 5535 5524 5512 5502 5490 5478 5468 5456 5449 5444 5440 5436 5432 5428 5426 5424 5422 5421 5420
5659 5654 5650 5644 5637 5631 5625 5617 5610 5602 5593 5586 5579 5570 5563 5554 5545 5537 5527 5514 5499 5484 5473 5462 5449 5440 5435 5431 5428 5425 5421 5418 5416 5412 5408 5406 5405 5405
5648 5643 5638 5631 5625 5617 5610 5603 5595 5586 5578 5569 5563 5555 5545 5535 5525 5516 5509 5489 5476 5455 5444 5436 5428 5423 5418 5415 5411 5407 5404 5402 5399 5397 5393 5391 5390 5388
5637 5631 5625 5618 5611 5604 5597 5588 5579 5571 5562 5553 5545 5537 5525 5515 5504 5493 5481 5466 5449 5428 5426 5423 5415 5409 5401 5396 5391 5387 5382 5379 5378 5377 5375 5374 5372 5372
5624 5618 5612 5604 5597 5590 5580 5571 5562 5553 5543 5534 5525 5515 5505 5492 5480 5466 5453 5439 5432 5411 5412 5412 5400 5398 5388 5382 5375 5369 5364 5360 5358 5356 5353 5354 5354 5354
5612 5606 5598 5591 5583 5574 5565 5556 5546 5536 5524 5513 5502 5490 5482 5466 5455 5440 5424 5417 5414 5403 5399 5401 5387 5384 5374 5366 5357 5350 5346 5343 5340 5337 5335 5335 5335 5336
5600 5593 5586 5577 5568 5560 5551 5543 5532 5519 5507 5493 5479 5467 5453 5439 5424 5414 5409 5406 5400 5391 5380 5383 5374 5369 5361 5351 5338 5330 5327 5325 5323 5320 5318 5319 5320 5321
5588 5580 5572 5563 5554 5547 5538 5527 5516 5502 5487 5471 5455 5440 5427 5413 5403 5401 5395 5390 5386 5378 5361 5361 5357 5352 5347 5340 5323 5310 5310 5309 5307 5305 5304 5306 5307 5309
5574 5564 5556 5549 5540 5530 5520 5510 5499 5485 5470 5452 5432 5414 5404 5398 5392 5386 5379 5374 5366 5362 5345 5343 5338 5327 5332 5327 5314 5298 5297 5293 5294 5293 5293 5294 5296 5298
5561 5553 5545 5536 5526 5515 5503 5491 5478 5464 5448 5430 5415 5404 5397 5389 5381 5371 5360 5351 5345 5337 5323 5317 5319 5312 5304 5304 5301 5290 5287 5284 5282 5283 5283 5284 5285 5285
5550 5541 5532 5522 5511 5498 5485 5471 5456 5440 5425 5413 5406 5398 5391 5381 5368 5356 5343 5332 5322 5314 5308 5298 5297 5292 5288 5286 5284 5282 5276 5274 5273 5273 5273 5274 5273 5272
5537 5527 5517 5506 5493 5479 5464 5451 5436 5421 5412 5406 5399 5390 5380 5369 5355 5343 5328 5314 5306 5295 5287 5284 5281 5279 5276 5274 5273 5272 5270 5267 5262 5265 5264 5265 5264 5265
5522 5511 5499 5487 5475 5462 5446 5431 5419 5411 5407 5400 5391 5381 5369 5355 5339 5324 5312 5299 5292 5286 5276 5273 5271 5268 5268 5266 5264 5264 5262 5261 5257 5254 5256 5258 5258 5257
5509 5497 5483 5469 5453 5438 5426 5417 5411 5406 5399 5391 5381 5370 5357 5343 5329 5315 5300 5287 5278 5275 5273 5268 5264 5262 5261 5259 5258 5256 5255 5253 5252 5252 5252 5253 5251 5250
5492 5480 5465 5450 5436 5423 5415 5410 5406 5399 5392 5383 5372 5361 5350 5338 5325 5312 5299 5287 5277 5271 5267 5265 5263 5261 5258 5255 5249 5250 5250 5249 5248 5249 5248 5248 5248 5244
5476 5461 5445 5431 5420 5414 5410 5406 5400 5394 5385 5376 5366 5356 5346 5336 5324 5313 5301 5290 5282 5275 5271 5267 5265 5262 5260 5257 5251 5249 5249 5247 5246 5245 5242 5241 5243 5240
5456 5442 5426 5417 5411 5409 5406 5402 5396 5388 5380 5371 5362 5353 5344 5334 5324 5314 5305 5296 5288 5281 5275 5270 5266 5263 5259 5257 5253 5248 5244 5244 5242 5240 5237 5235 5233 5231
5435 5421 5413 5408 5406 5405 5402 5398 5392 5383 5375 5367 5359 5351 5343 5334 5326 5317 5309 5300 5293 5286 5280 5275 5270 5265 5261 5257 5253 5248 5242 5235 5233 5231 5229 5228 5226 5223
5416 5406 5404 5404 5404 5402 5399 5394 5387 5379 5371 5364 5357 5350 5342 5335 5327 5320 5312 5304 5297 5290 5283 5276 5270 5265 5259 5254 5249 5245 5240 5235 5228 5222 5219 5216 5213 5210
5404 5401 5402 5403 5402 5400 5396 5391 5384 5377 5370 5363 5357 5350 5342 5335 5328 5321 5313 5307 5299 5291 5284 5277 5270 5264 5258 5253 5247 5243 5237 5231 5225 5219 5211 5204 5198 5191
Wind_Speed
43 44 43 48 51 51 51 51 52 53 54 55 57 58 61 62 64 66 67 67 68 70 74 78 81 84 86 89 93 98 101 103 106 106 102 96 89 83
46 45 45 50 54 54 51 53 57 59 60 61 61 61 62 63 65 66 67 69 73 77 81 84 88 90 93 98 103 104 101 93 80 66 57 55 54 54
44 45 48 52 56 55 54 57 60 62 63 64 65 66 66 66 65 68 72 75 79 83 87 92 96 100 104 105 96 78 61 52 50 51 47 46 45 43
44 46 51 55 56 56 57 61 62 63 64 65 67 68 68 68 71 73 77 82 86 91 98 103 107 105 89 67 56 52 50 50 49 50 50 50 49 47
47 52 57 57 56 58 61 63 63 63 65 67 68 68 69 71 74 77 81 87 94 102 107 107 94 69 56 52 51 49 50 50 48 48 48 48 52 52
54 58 59 56 59 61 63 63 63 64 66 67 68 69 71 75 77 83 88 96 101 108 95 67 55 53 55 56 56 58 59 58 57 53 50 49 48 51
58 59 55 58 60 63 62 63 64 65 66 69 71 73 77 80 86 92 99 103 100 76 53 48 53 55 56 56 57 57 59 59 59 58 55 53 51 49
55 54 57 60 61 62 64 65 66 67 70 73 75 79 83 89 94 101 105 90 55 52 49 48 54 52 52 53 55 57 58 57 54 49 48 50 50 50
54 56 58 59 61 63 64 64 66 70 75 79 82 87 90 96 101 101 74 47 43 49 50 47 53 51 54 56 59 61 60 55 49 47 46 43 45 47
54 56 57 60 62 62 64 66 69 74 79 84 89 94 100 102 91 62 43 43 47 51 55 51 53 53 55 57 60 61 59 53 46 44 42 39 39 41
54 57 60 61 60 63 66 69 74 79 85 90 96 102 98 76 50 44 47 50 51 53 60 58 58 57 56 52 56 57 54 49 43 37 32 30 32 34
58 60 60 61 63 66 70 75 79 84 89 96 98 86 60 45 48 51 54 56 58 57 64 63 62 62 54 47 47 47 46 48 39 30 26 26 29 32
55 56 58 62 65 71 76 79 84 90 97 92 68 45 44 49 53 58 63 66 66 66 67 66 58 57 55 48 38 39 40 42 37 29 25 26 30 36
54 57 61 65 71 76 81 86 92 95 79 52 39 43 47 53 60 65 68 70 67 63 58 56 52 47 39 31 27 29 34 37 34 31 30 30 32 25
58 61 66 71 76 81 88 93 89 64 40 37 42 47 53 59 65 67 66 64 57 53 50 46 43 36 27 21 19 24 26 29 33 28 31 28 22 18
61 66 71 76 83 89 91 81 52 32 34 40 46 53 60 62 61 61 59 55 46 39 41 40 37 27 21 20 20 18 22 22 29 33 24 16 19 19
65 70 76 84 91 88 72 44 27 32 39 45 52 56 53 52 51 48 46 41 35 30 28 31 29 21 18 20 18 20 15 21 24 20 19 17 19 21
69 76 84 91 83 61 38 24 28 35 41 48 49 46 42 42 42 41 38 36 29 23 18 16 15 15 20 24 23 3 9 13 12 14 19 18 19 27
76 84 90 77 53 33 18 24 30 36 43 41 43 39 36 37 37 37 34 33 29 25 20 14 13 14 14 16 23 6 8 15 12 20 24 22 18 26
84 89 72 46 29 14 19 25 31 37 36 37 37 34 32 32 32 32 31 29 27 26 24 21 17 15 13 11 14 22 21 13 15 14 23 26 28 29
87 68 43 23 9 14 20 25 31 34 32 33 32 30 29 27 27 27 28 29 27 25 23 22 20 18 17 18 18 20 25 28 26 19 19 27 30 34
64 39 18 4 8 15 20 26 32 29 31 31 30 27 25 24 25 27 29 28 28 28 27 26 24 22 20 19 18 18 20 23 27 28 26 26 28 31
32 12 0 4 10 15 20 27 28 27 27 28 28 25 23 24 26 28 29 29 30 29 27 25 23 22 20 19 18 19 23 26 27 29 31 28 24 23
Wind_Direction
290 292 289 293 292 292 293 294 294 293 294 295 295 295 296 296 296 296 296 295 293 292 293 293 294 293 293 293 293 291 289 287 285 283 281 280 277 273
289 288 291 294 294 294 296 296 296 296 297 297 298 298 298 297 298 297 295 295 296 296 295 295 295 296 297 295 296 294 290 287 285 282 277 276 274 272
287 288 291 294 294 295 297 297 297 298 299 300 301 301 302 301 300 299 298 297 296 296 298 299 298 299 299 298 296 291 287 284 280 279 275 276 275 270
291 292 294 293 295 297 297 298 298 299 300 301 302 303 303 302 301 301 300 300 299 300 302 303 303 302 299 292 289 289 287 284 282 279 274 271 270 270
287 284 293 295 296 296 298 299 299 300 302 303 304 303 302 302 301 302 303 303 302 304 305 304 302 295 291 292 292 290 287 284 282 280 278 275 271 268
279 291 293 295 296 298 299 299 301 303 303 303 301 301 302 300 301 303 304 304 304 304 303 297 292 293 294 293 292 289 286 282 280 278 276 275 272 268
288 291 294 296 298 298 299 302 303 303 302 301 302 302 301 301 302 304 306 304 306 298 290 293 294 298 299 300 299 296 292 287 281 276 271 269 268 266
291 293 296 298 299 300 303 304 305 304 304 303 303 303 303 303 304 305 305 307 296 287 293 296 296 299 298 300 300 299 299 294 287 283 275 264 261 261
293 296 298 299 301 304 305 304 305 304 304 304 304 304 303 302 303 307 306 295 292 292 293 295 296 298 297 298 297 296 298 295 287 279 274 268 259 258
297 299 300 302 304 304 304 304 305 305 305 304 304 305 306 308 307 303 294 293 294 295 294 295 296 297 297 297 297 296 297 294 287 281 274 266 260 258
299 300 302 305 304 303 306 307 306 306 307 307 307 308 309 306 302 299 295 297 298 297 295 296 296 296 297 297 296 293 294 292 289 287 274 263 257 256
302 305 306 306 306 306 306 307 308 309 309 308 312 309 306 304 302 301 301 301 299 297 295 296 296 296 295 292 290 285 289 291 294 285 269 256 259 263
304 304 305 306 306 306 308 309 309 310 312 313 308 302 304 304 305 305 305 303 302 301 299 298 298 297 296 293 281 278 283 285 288 284 270 265 274 275
304 304 306 307 309 310 310 311 312 314 314 310 304 306 306 307 306 306 305 304 304 302 300 300 302 300 298 289 276 273 278 281 284 281 279 280 282 264
306 307 308 310 312 312 312 313 315 314 312 309 310 310 310 309 307 307 307 305 305 303 303 303 303 303 301 294 276 275 275 281 282 279 278 287 269 252
310 312 312 312 312 312 315 316 314 311 313 314 315 315 315 315 316 315 313 309 305 299 298 303 306 305 309 296 295 287 284 274 275 283 295 272 268 278
313 313 313 314 315 317 316 315 312 316 319 321 321 322 324 325 327 330 336 332 320 308 300 301 308 314 311 306 301 301 284 270 275 273 274 277 290 285
313 313 314 316 317 316 314 315 318 323 325 325 329 331 334 341 347 346 347 351 354 345 335 327 318 314 315 320 341 324 304 279 275 275 282 286 273 271
313 315 317 318 317 314 313 317 324 328 328 333 337 338 341 344 349 356 3 6 8 12 15 11 350 341 330 319 320 12 276 277 262 285 284 287 267 257
314 318 317 316 313 309 317 325 329 330 334 338 343 347 352 353 356 360 8 8 9 6 4 4 1 354 352 338 319 323 330 315 302 270 265 274 276 268
318 317 313 311 303 315 325 329 332 335 339 342 345 349 353 357 0 8 11 14 16 16 13 8 2 359 352 342 331 318 313 314 316 315 279 267 265 271
317 314 310 290 317 328 332 335 338 341 344 348 350 352 353 1 5 6 6 6 4 3 360 356 354 350 346 341 334 325 319 318 322 325 319 304 291 284
318 318 229 334 337 338 340 340 343 342 346 351 353 351 352 356 358 359 1 2 0 360 1 1 0 359 357 353 353 354 347 344 338 331 323 324 330 325